When you browse on this site, cookies collect data to enhance your experience and personalize the content and advertising you see.
Visit our Privacy Policy to learn more. By continuing to use the site, you agree to this use of cookies and data.
  • Em Portugal
  • Lista de países
  • Para 7 dias
  • Temperatura da água
  • Mapa do tempo
  • Widgets de tempo
  • user-avatar
    Iniciar Sessão

    Previsão horária em Pontypridd

    Hoje, 23 Setembro, Segunda-feira

    Tempo Temperatura Precipitação Vento Pressão Humidade
    00:00 +12°C° 0.1 mm 5 m/s 744 mmHg 95%
    01:00 +12°C° 0.1 mm 5 m/s 745 mmHg 95%
    02:00 +12°C° 0.1 mm 5 m/s 745 mmHg 94%
    03:00 +12°C° 0.1 mm 5 m/s 745 mmHg 94%
    04:00 +12°C° 0 mm 5 m/s 745 mmHg 94%
    05:00 +11°C° 0 mm 4 m/s 746 mmHg 94%
    06:00 +11°C° 0 mm 4 m/s 746 mmHg 94%
    07:00 +12°C° 0 mm 4 m/s 746 mmHg 91%
    08:00 +13°C° 0 mm 5 m/s 746 mmHg 88%
    09:00 +14°C° 0 mm 5 m/s 746 mmHg 85%
    10:00 +15°C° 0.1 mm 6 m/s 746 mmHg 83%
    11:00 +16°C° 0.1 mm 7 m/s 746 mmHg 80%
    12:00 +17°C° 0.1 mm 7 m/s 746 mmHg 77%
    13:00 +16°C° 1.3 mm 8 m/s 745 mmHg 83%
    14:00 +15°C° 1.3 mm 8 m/s 745 mmHg 89%
    15:00 +13°C° 1.3 mm 9 m/s 744 mmHg 95%
    16:00 +13°C° 1.2 mm 8 m/s 744 mmHg 96%
    17:00 +15°C° 1.2 mm 7 m/s 743 mmHg 96%
    18:00 +15°C° 1.2 mm 6 m/s 743 mmHg 96%
    19:00 +15°C° 0.5 mm 6 m/s 743 mmHg 96%
    20:00 +15°C° 0.5 mm 5 m/s 743 mmHg 97%
    21:00 +17°C° 0.5 mm 4 m/s 744 mmHg 97%
    22:00 +15°C° 0.2 mm 4 m/s 743 mmHg 97%
    23:00 +15°C° 0.2 mm 4 m/s 743 mmHg 97%

    Amanhã, 24 Setembro, Terça-feira

    Tempo Temperatura Precipitação Vento Pressão Humidade
    00:00 +15°C° 0.2 mm 4 m/s 742 mmHg 97%
    01:00 +15°C° 0.5 mm 5 m/s 742 mmHg 97%
    02:00 +15°C° 0.5 mm 5 m/s 741 mmHg 97%
    03:00 +16°C° 0.5 mm 5 m/s 740 mmHg 97%
    04:00 +16°C° 3.3 mm 5 m/s 740 mmHg 97%
    05:00 +15°C° 3.3 mm 6 m/s 739 mmHg 96%
    06:00 +15°C° 3.3 mm 6 m/s 738 mmHg 96%
    07:00 +15°C° 1.3 mm 6 m/s 738 mmHg 95%
    08:00 +15°C° 1.3 mm 6 m/s 738 mmHg 94%
    09:00 +15°C° 1.3 mm 6 m/s 738 mmHg 93%
    10:00 +15°C° 0.2 mm 7 m/s 739 mmHg 89%
    11:00 +16°C° 0.2 mm 8 m/s 739 mmHg 85%
    12:00 +16°C° 0.2 mm 8 m/s 739 mmHg 81%
    13:00 +16°C° 0.1 mm 8 m/s 740 mmHg 81%
    14:00 +16°C° 0.1 mm 8 m/s 740 mmHg 81%
    15:00 +15°C° 0.1 mm 8 m/s 740 mmHg 80%
    16:00 +15°C° 0.4 mm 8 m/s 740 mmHg 84%
    17:00 +14°C° 0.4 mm 7 m/s 739 mmHg 87%
    18:00 +12°C° 0.4 mm 7 m/s 739 mmHg 91%
    19:00 +12°C° 0.9 mm 7 m/s 739 mmHg 92%
    20:00 +12°C° 0.9 mm 8 m/s 739 mmHg 94%
    21:00 +12°C° 0.9 mm 8 m/s 739 mmHg 96%
    22:00 +12°C° 0.8 mm 8 m/s 738 mmHg 94%
    23:00 +12°C° 0.8 mm 8 m/s 738 mmHg 93%

    Depois de amanhã, 25 Setembro, Quarta-feira

    Tempo Temperatura Precipitação Vento Pressão Humidade
    00:00 +12°C° 0.8 mm 8 m/s 737 mmHg 92%
    01:00 +13°C° 1.4 mm 8 m/s 737 mmHg 93%
    02:00 +13°C° 1.4 mm 9 m/s 737 mmHg 94%
    03:00 +13°C° 1.4 mm 9 m/s 737 mmHg 96%
    04:00 +13°C° 1 mm 9 m/s 737 mmHg 95%
    05:00 +13°C° 1 mm 9 m/s 737 mmHg 94%
    06:00 +13°C° 1 mm 8 m/s 737 mmHg 94%
    07:00 +13°C° 0.3 mm 8 m/s 738 mmHg 93%
    08:00 +13°C° 0.3 mm 8 m/s 738 mmHg 93%
    09:00 +15°C° 0.3 mm 8 m/s 739 mmHg 93%
    10:00 +15°C° 0.1 mm 8 m/s 740 mmHg 91%
    11:00 +15°C° 0.1 mm 8 m/s 740 mmHg 89%
    12:00 +16°C° 0.1 mm 8 m/s 741 mmHg 88%
    13:00 +16°C° 0.1 mm 7 m/s 741 mmHg 86%
    14:00 +16°C° 0.1 mm 7 m/s 741 mmHg 85%
    15:00 +16°C° 0.1 mm 7 m/s 741 mmHg 83%
    16:00 +16°C° 0.1 mm 7 m/s 741 mmHg 87%
    17:00 +15°C° 0.1 mm 6 m/s 741 mmHg 91%
    18:00 +15°C° 0.1 mm 6 m/s 741 mmHg 95%
    19:00 +15°C° 0.8 mm 6 m/s 741 mmHg 95%
    20:00 +15°C° 0.8 mm 7 m/s 741 mmHg 96%
    21:00 +15°C° 0.8 mm 8 m/s 740 mmHg 97%
    22:00 +16°C° 0.5 mm 8 m/s 740 mmHg 96%
    23:00 +16°C° 0.5 mm 9 m/s 740 mmHg 95%

    26 Setembro, Quinta-feira

    Tempo Temperatura Precipitação Vento Pressão Humidade
    00:00 +16°C° 0.5 mm 10 m/s 740 mmHg 95%
    01:00 +16°C° 1.4 mm 9 m/s 740 mmHg 95%
    02:00 +16°C° 1.4 mm 9 m/s 740 mmHg 96%
    03:00 +15°C° 1.4 mm 8 m/s 739 mmHg 97%
    04:00 +15°C° 0.5 mm 8 m/s 740 mmHg 95%
    05:00 +13°C° 0.5 mm 8 m/s 740 mmHg 93%
    06:00 +13°C° 0.5 mm 8 m/s 740 mmHg 91%
    07:00 +13°C° 0.1 mm 8 m/s 740 mmHg 88%
    08:00 +13°C° 0.1 mm 8 m/s 740 mmHg 86%
    09:00 +15°C° 0.1 mm 8 m/s 741 mmHg 83%
    10:00 +15°C° 0.2 mm 9 m/s 741 mmHg 82%
    11:00 +15°C° 0.2 mm 9 m/s 741 mmHg 81%
    12:00 +15°C° 0.2 mm 9 m/s 741 mmHg 80%
    13:00 +14°C° 0.3 mm 10 m/s 741 mmHg 81%
    14:00 +14°C° 0.3 mm 10 m/s 741 mmHg 82%
    15:00 +14°C° 0.3 mm 11 m/s 741 mmHg 84%
    16:00 +13°C° 0.3 mm 10 m/s 741 mmHg 85%
    17:00 +13°C° 0.3 mm 9 m/s 742 mmHg 87%
    18:00 +12°C° 0.3 mm 9 m/s 742 mmHg 88%
    19:00 +12°C° 0.3 mm 9 m/s 742 mmHg 88%
    20:00 +12°C° 0.3 mm 8 m/s 742 mmHg 88%
    21:00 +12°C° 0.3 mm 8 m/s 743 mmHg 88%
    22:00 +12°C° 0.4 mm 8 m/s 742 mmHg 88%
    23:00 +12°C° 0.4 mm 8 m/s 742 mmHg 88%

    27 Setembro, Sexta-feira

    Tempo Temperatura Precipitação Vento Pressão Humidade
    00:00 +12°C° 0.4 mm 7 m/s 742 mmHg 88%
    01:00 +11°C° 0.4 mm 7 m/s 742 mmHg 88%
    02:00 +11°C° 0.4 mm 7 m/s 742 mmHg 89%
    03:00 +11°C° 0.4 mm 7 m/s 742 mmHg 89%
    04:00 +11°C° 0.4 mm 8 m/s 742 mmHg 89%
    05:00 +11°C° 0.4 mm 8 m/s 742 mmHg 89%
    06:00 +11°C° 0.4 mm 8 m/s 742 mmHg 89%
    07:00 +11°C° 0.4 mm 8 m/s 742 mmHg 87%
    08:00 +12°C° 0.4 mm 9 m/s 742 mmHg 86%
    09:00 +12°C° 0.4 mm 9 m/s 742 mmHg 85%
    10:00 +12°C° 0.3 mm 9 m/s 742 mmHg 85%
    11:00 +12°C° 0.3 mm 10 m/s 741 mmHg 85%
    12:00 +12°C° 0.3 mm 10 m/s 741 mmHg 85%
    13:00 +12°C° 0.3 mm 10 m/s 741 mmHg 85%
    14:00 +12°C° 0.3 mm 11 m/s 741 mmHg 85%
    15:00 +12°C° 0.3 mm 11 m/s 741 mmHg 85%
    16:00 +12°C° 0.8 mm 11 m/s 741 mmHg 87%
    17:00 +12°C° 0.8 mm 11 m/s 741 mmHg 89%
    18:00 +12°C° 0.8 mm 11 m/s 741 mmHg 91%
    19:00 +11°C° 0.7 mm 10 m/s 741 mmHg 91%
    20:00 +11°C° 0.7 mm 9 m/s 741 mmHg 91%
    21:00 +11°C° 0.7 mm 8 m/s 742 mmHg 90%
    22:00 +10°C° 0.5 mm 7 m/s 742 mmHg 91%
    23:00 +10°C° 0.5 mm 7 m/s 742 mmHg 92%

    28 Setembro, Sábado

    Tempo Temperatura Precipitação Vento Pressão Humidade
    00:00 +10°C° 0.5 mm 7 m/s 742 mmHg 92%
    01:00 +10°C° 0.3 mm 7 m/s 742 mmHg 92%
    02:00 +10°C° 0.3 mm 7 m/s 742 mmHg 93%
    03:00 +10°C° 0.3 mm 7 m/s 742 mmHg 93%
    04:00 +10°C° 0.2 mm 6 m/s 742 mmHg 94%
    05:00 +9°C° 0.2 mm 5 m/s 743 mmHg 94%
    06:00 +9°C° 0.2 mm 5 m/s 743 mmHg 94%
    07:00 +10°C° 0.2 mm 5 m/s 743 mmHg 91%
    08:00 +11°C° 0.2 mm 6 m/s 743 mmHg 89%
    09:00 +12°C° 0.2 mm 7 m/s 744 mmHg 86%
    10:00 +12°C° 0.4 mm 7 m/s 744 mmHg 86%
    11:00 +12°C° 0.4 mm 8 m/s 744 mmHg 87%
    12:00 +12°C° 0.4 mm 8 m/s 744 mmHg 88%
    13:00 +13°C° 0.4 mm 9 m/s 744 mmHg 87%
    14:00 +13°C° 0.4 mm 9 m/s 744 mmHg 86%
    15:00 +13°C° 0.4 mm 9 m/s 744 mmHg 85%
    16:00 +13°C° 0.2 mm 9 m/s 744 mmHg 87%
    17:00 +12°C° 0.2 mm 8 m/s 744 mmHg 89%
    18:00 +12°C° 0.2 mm 8 m/s 744 mmHg 91%
    19:00 +11°C° 0.2 mm 7 m/s 745 mmHg 92%
    20:00 +11°C° 0.2 mm 7 m/s 745 mmHg 92%
    21:00 +11°C° 0.2 mm 6 m/s 745 mmHg 93%
    22:00 +11°C° 0.2 mm 6 m/s 745 mmHg 93%
    23:00 +12°C° 0.2 mm 5 m/s 744 mmHg 93%
    Mostrar mais